TeikyoSat 4
1 49396U 21102B   25298.04562694  .00003635  00000-0  23776-3 0  9994
2 49396  97.3963 331.4662 0013047  28.6564 331.5379 15.08311927217267
Z-Sat
1 49399U 21102E   25298.53049582  .00006774  00000-0  35712-3 0  9997
2 49399  97.3647 335.9274 0017146 350.9184   9.1736 15.15765287217861
KOSEN 1
1 49402U 21102H   25298.08478362  .00010480  00000-0  45416-3 0  9995
2 49402  97.3541 340.0074 0013874 322.2277  37.7985 15.22477408218196
HO-113
1 50466U 21131B   25298.53279175  .00000955  00000-0  31067-3 0  9993
2 50466  98.5072  27.1971 0005242  86.4362 273.7426 14.41012071201312
SNUGLITE 2
1 52899U 22065F   25298.40393331  .00002053  00000-0  40391-3 0  9990
2 52899  98.1892  79.2287 0008262  47.5234 312.6665 14.63631372176649
UmKA 1 (RS40S)
1 57172U 23091G   25298.48022359  .00009115  00000-0  46077-3 0  9999
2 57172  97.5409 353.1688 0013019 211.2274 148.8187 15.17211672128376
CubeBel-2 (EU11S)
1 57175U 23091K   25298.43510561  .00015198  00000-0  66008-3 0  9998
2 57175  97.5406 355.2077 0010574 214.9184 145.1360 15.22354338128505
ENSO
1 58470U 23185J   25298.09129247  .00524137  11009-3  15607-2 0  9990
2 58470  97.3514  19.7505 0006850 270.3016  89.7473 15.92395026106568
SONATE-2
1 59112U 24043Q   25298.34888515  .00032990  00000-0  78053-3 0  9998
2 59112  97.5310  72.9347 0009430 343.6091  16.4849 15.41692018 91514
MO-122
1 60209U 24125G   25298.51359961  .00035144  00000-0  80906-3 0  9999
2 60209  97.2589 148.9737 0016570   6.4327 353.7130 15.42399082 73161
GRBBeta
1 60237U 24128C   25298.49647501  .00005226  00000-0  37756-3 0  9993
2 60237  61.9910 318.2350 0057082  86.2910 274.4707 15.04062423 70933
Curium One
1 60242U 24128H   25298.39858723  .00010505  00000-0  67452-3 0  9990
2 60242  61.9805 314.5237 0056867  82.8331 277.9223 15.07617065 70992
ROBUSTA-3A
1 60243U 24128J   25298.38240175  .00009569  00000-0  62616-3 0  9991
2 60243  61.9878 315.9119 0056552  80.2814 280.4660 15.07019479 70973
CatSat
1 60246U 24125J   25298.34164407  .00037298  00000-0  10336-2 0  9991
2 60246  97.2403 146.3803 0036283 324.4164  35.4661 15.36185626 71080
HYPERVIEW-1G (RS66S)
1 61772U 24199AP  25298.56596819  .00042692  00000-0  96389-3 0  9994
2 61772  97.3271 167.5603 0013705  60.3042 299.9568 15.42987184 98175
AO-123
1 61781U 24199AY  25298.57665155  .00012322  00000-0  41686-3 0  9992
2 61781  97.3302 164.5865 0016959  69.9298 290.3767 15.30617013 97970
ZIMSAT 2
1 61783U 24199BA  25298.54829340  .00113562  00000-0  15738-2 0  9995
2 61783  97.3196 169.7674 0011959  56.8179 303.4222 15.56606051101477
HADES-R (SO-124)
1 62690U 25009CK  25298.18340523  .00109465  00000-0  23353-2 0  9994
2 62690  97.3964  19.5000 0002457 290.5742  69.5242 15.44476456 43253
HYDRA-T
1 62692U 25009CM  25298.19700654  .00114630  00000-0  23847-2 0  9990
2 62692  97.3960  19.6340 0002541 286.3838  73.7131 15.45198582 43269
JINJUSat 1B
1 63210U 25052A   25298.44521508  .00020825  00000-0  84769-3 0  9995
2 63210  97.4216 190.9762 0003569 159.9584 200.1794 15.24522676 34225
NUSHSAT 1
1 63211U 25052B   25298.27156641  .00023754  00000-0  94587-3 0  9992
2 63211  97.4202 190.8710 0003289 164.2306 195.9035 15.25236248 34208
TEVEL2-4
1 63213U 25052D   25298.18806067  .00022564  00000-0  91288-3 0  9991
2 63213  97.4120 190.4355 0001938 168.8215 191.3066 15.24716240 34183
TEVEL2-5
1 63214U 25052E   25298.25718134  .00022507  00000-0  91189-3 0  9994
2 63214  97.4119 190.4967 0001985 169.8571 190.2707 15.24667645 34194
TEVEL2-6
1 63215U 25052F   25298.45988287  .00022882  00000-0  92801-3 0  9993
2 63215  97.4121 190.6881 0001871 169.9599 190.1676 15.24630782 34220
TEVEL2-1
1 63217U 25052H   25298.49297402  .00021301  00000-0  87161-3 0  9999
2 63217  97.4095 190.5706 0001402 189.5794 170.5417 15.24347196 34221
TEVEL2-3
1 63218U 25052J   25298.42708976  .00021933  00000-0  89694-3 0  9990
2 63218  97.4098 190.5085 0001384 190.8981 169.2227 15.24360118 34219
TEVEL2-2
1 63219U 25052K   25298.42810762  .00021239  00000-0  86919-3 0  9994
2 63219  97.4095 190.5063 0001382 190.2730 169.8479 15.24343177 34218
TEVEL2-9
1 63237U 25052AD  25298.21424622  .00020464  00000-0  87236-3 0  9999
2 63237  97.4160 190.0654 0004979 250.3901 109.6798 15.22961096 34158
TEVEL2-7
1 63238U 25052AE  25298.22392869  .00019693  00000-0  84258-3 0  9991
2 63238  97.4162 190.0578 0004965 250.1910 109.8791 15.22844170 34157
TEVEL2-8
1 63239U 25052AF  25298.42582983  .00019858  00000-0  85010-3 0  9992
2 63239  97.4159 190.2441 0004988 249.0127 111.0576 15.22823544 34188
HYDRA-W
1 63490U 25052BL  25298.20907721  .00066948  00000-0  20405-2 0  9996
2 63490  97.4094 191.5854 0005644 235.4339 124.6371 15.33699958 34265
HADES-ICM (SO-125)
1 63492U 25052BN  25298.15563797  .00060670  00000-0  19212-2 0  9993
2 63492  97.4105 191.3702 0006095 244.0924 115.9690 15.32507085 34240
Dragonfly
1 65729U 98067XH  25298.76352532  .00104797  00000-0  13465-2 0  9997
2 65729  51.6322  18.6742 0002439  44.8813 315.2376 15.58269014  5658
RSP-03
1 65732U 98067XL  25298.45116828  .00090355  00000-0  12026-2 0  9999
2 65732  51.6327  20.3387 0004766  14.2313 345.8812 15.57387568  5617
GHS-01
1 65733U 98067XM  25298.50151751  .00118052  00000-0  14854-2 0  9996
2 65733  51.6340  19.9258 0002784  37.8823 322.2365 15.58764898  5628
BOTAN
1 65942U 98067XP  25297.50389933  .00079575  00000-0  12556-2 0  9995
2 65942  51.6343  26.0098 0004105 322.8954  37.1752 15.52809063  2194
